Previsão horária em Abadin

Hoje, 21 Outubro, Quarta-feira

Tempo Temperatura Precipitação Vento Pressão Humidade
00:00 +11°C° 1.8 mm 3 m/s 692 mmHg 96%
01:00 +11°C° 1.8 mm 3 m/s 693 mmHg 95%
02:00 +11°C° 1.8 mm 4 m/s 693 mmHg 94%
03:00 +11°C° 0.2 mm 3 m/s 693 mmHg 94%
04:00 +10°C° 0.2 mm 3 m/s 694 mmHg 94%
05:00 +10°C° 0.2 mm 3 m/s 695 mmHg 94%
06:00 +10°C° 0.1 mm 3 m/s 695 mmHg 93%
07:00 +11°C° 0.1 mm 3 m/s 696 mmHg 91%
08:00 +11°C° 0.1 mm 3 m/s 697 mmHg 89%
09:00 +12°C° 0.2 mm 3 m/s 698 mmHg 84%
10:00 +13°C° 0.2 mm 3 m/s 698 mmHg 79%
11:00 +14°C° 0.2 mm 3 m/s 699 mmHg 73%
12:00 +14°C° 0.3 mm 3 m/s 699 mmHg 74%
13:00 +14°C° 0.3 mm 3 m/s 699 mmHg 74%
14:00 +15°C° 0.3 mm 2 m/s 699 mmHg 74%
15:00 +14°C° 0.4 mm 2 m/s 699 mmHg 80%
16:00 +12°C° 0.4 mm 1 m/s 699 mmHg 87%
17:00 +11°C° 0.4 mm 1 m/s 699 mmHg 93%
18:00 +10°C° 0.3 mm 1 m/s 700 mmHg 94%
19:00 +10°C° 0.3 mm 1 m/s 700 mmHg 96%
20:00 +9°C° 0.3 mm 1 m/s 701 mmHg 97%
21:00 +9°C° 0 mm 1 m/s 701 mmHg 96%
22:00 +9°C° 0 mm 1 m/s 701 mmHg 96%
23:00 +7°C° 0 mm 2 m/s 701 mmHg 96%

Amanhã, 22 Outubro, Quinta-feira

Tempo Temperatura Precipitação Vento Pressão Humidade
00:00 +7°C° 0 mm 2 m/s 701 mmHg 96%
01:00 +7°C° 0 mm 2 m/s 701 mmHg 96%
02:00 +7°C° 0 mm 2 m/s 701 mmHg 95%
03:00 +7°C° 0 mm 2 m/s 701 mmHg 95%
04:00 +7°C° 0 mm 2 m/s 701 mmHg 95%
05:00 +6°C° 0 mm 2 m/s 702 mmHg 95%
06:00 +8°C° 0 mm 2 m/s 702 mmHg 91%
07:00 +9°C° 0 mm 2 m/s 703 mmHg 88%
08:00 +10°C° 0 mm 2 m/s 703 mmHg 85%
09:00 +12°C° 0 mm 2 m/s 703 mmHg 76%
10:00 +14°C° 0 mm 2 m/s 704 mmHg 67%
11:00 +16°C° 0 mm 2 m/s 704 mmHg 59%
12:00 +16°C° 0.2 mm 2 m/s 704 mmHg 60%
13:00 +16°C° 0.2 mm 2 m/s 704 mmHg 62%
14:00 +16°C° 0.2 mm 1 m/s 704 mmHg 63%
15:00 +14°C° 0.2 mm 1 m/s 704 mmHg 73%
16:00 +12°C° 0.2 mm 1 m/s 704 mmHg 82%
17:00 +10°C° 0.2 mm 1 m/s 704 mmHg 91%
18:00 +9°C° 0 mm 1 m/s 704 mmHg 93%
19:00 +9°C° 0 mm 1 m/s 705 mmHg 94%
20:00 +8°C° 0 mm 1 m/s 705 mmHg 95%
21:00 +8°C° 0 mm 1 m/s 705 mmHg 96%
22:00 +8°C° 0 mm 1 m/s 705 mmHg 96%
23:00 +8°C° 0 mm 1 m/s 705 mmHg 96%

Depois de amanhã, 23 Outubro, Sexta-feira

Tempo Temperatura Precipitação Vento Pressão Humidade
00:00 +8°C° 0 mm 1 m/s 706 mmHg 96%
01:00 +8°C° 0 mm 1 m/s 706 mmHg 95%
02:00 +6°C° 0 mm 2 m/s 706 mmHg 95%
03:00 +7°C° 0.2 mm 2 m/s 706 mmHg 95%
04:00 +7°C° 0.2 mm 2 m/s 707 mmHg 95%
05:00 +8°C° 0.2 mm 2 m/s 708 mmHg 96%
06:00 +8°C° 0.2 mm 2 m/s 708 mmHg 96%
07:00 +10°C° 0.2 mm 1 m/s 709 mmHg 95%
08:00 +10°C° 0.2 mm 1 m/s 709 mmHg 95%
09:00 +10°C° 0.1 mm 2 m/s 710 mmHg 90%
10:00 +12°C° 0.1 mm 2 m/s 710 mmHg 85%
11:00 +13°C° 0.1 mm 2 m/s 711 mmHg 80%
12:00 +13°C° 0.1 mm 2 m/s 711 mmHg 76%
13:00 +13°C° 0.1 mm 2 m/s 711 mmHg 72%
14:00 +13°C° 0.1 mm 2 m/s 711 mmHg 69%
15:00 +12°C° 0 mm 2 m/s 711 mmHg 76%
16:00 +9°C° 0 mm 2 m/s 711 mmHg 83%
17:00 +9°C° 0 mm 1 m/s 711 mmHg 91%
18:00 +8°C° 0 mm 1 m/s 711 mmHg 92%
19:00 +7°C° 0 mm 2 m/s 711 mmHg 93%
20:00 +6°C° 0 mm 2 m/s 711 mmHg 94%
21:00 +6°C° 0 mm 2 m/s 711 mmHg 94%
22:00 +6°C° 0 mm 2 m/s 711 mmHg 93%
23:00 +6°C° 0 mm 2 m/s 711 mmHg 93%

24 Outubro, Sábado

Tempo Temperatura Precipitação Vento Pressão Humidade
00:00 +6°C° 0 mm 2 m/s 711 mmHg 92%
01:00 +6°C° 0 mm 2 m/s 711 mmHg 92%
02:00 +6°C° 0 mm 2 m/s 711 mmHg 91%
03:00 +6°C° 0 mm 2 m/s 710 mmHg 91%
04:00 +6°C° 0 mm 2 m/s 710 mmHg 90%
05:00 +5°C° 0 mm 2 m/s 710 mmHg 89%
06:00 +7°C° 0 mm 3 m/s 710 mmHg 84%
07:00 +8°C° 0 mm 3 m/s 710 mmHg 80%
08:00 +9°C° 0 mm 3 m/s 710 mmHg 75%
09:00 +11°C° 0 mm 3 m/s 710 mmHg 70%
10:00 +12°C° 0 mm 4 m/s 710 mmHg 65%
11:00 +14°C° 0 mm 4 m/s 710 mmHg 60%
12:00 +13°C° 0 mm 4 m/s 709 mmHg 61%
13:00 +13°C° 0 mm 4 m/s 709 mmHg 63%
14:00 +13°C° 0 mm 5 m/s 708 mmHg 65%
15:00 +12°C° 0 mm 4 m/s 708 mmHg 68%
16:00 +11°C° 0 mm 4 m/s 707 mmHg 71%
17:00 +11°C° 0 mm 4 m/s 707 mmHg 75%
18:00 +11°C° 0 mm 4 m/s 706 mmHg 75%
19:00 +10°C° 0 mm 5 m/s 706 mmHg 75%
20:00 +10°C° 0 mm 5 m/s 706 mmHg 76%
21:00 +10°C° 0 mm 5 m/s 705 mmHg 77%
22:00 +10°C° 0 mm 5 m/s 704 mmHg 78%
23:00 +10°C° 0 mm 5 m/s 704 mmHg 78%

25 Outubro, Domingo

Tempo Temperatura Precipitação Vento Pressão Humidade
00:00 +9°C° 3.4 mm 5 m/s 703 mmHg 84%
01:00 +10°C° 3.4 mm 4 m/s 703 mmHg 90%
02:00 +8°C° 3.4 mm 4 m/s 703 mmHg 96%
03:00 +8°C° 2.1 mm 4 m/s 703 mmHg 95%
04:00 +8°C° 2.1 mm 3 m/s 704 mmHg 95%
05:00 +8°C° 2.1 mm 3 m/s 704 mmHg 94%
06:00 +8°C° 0.1 mm 3 m/s 705 mmHg 93%
07:00 +8°C° 0.1 mm 3 m/s 705 mmHg 91%
08:00 +8°C° 0.1 mm 3 m/s 705 mmHg 90%
09:00 +8°C° 0.2 mm 4 m/s 706 mmHg 85%
10:00 +8°C° 0.2 mm 4 m/s 706 mmHg 80%
11:00 +9°C° 0.2 mm 5 m/s 706 mmHg 75%
12:00 +9°C° 0.6 mm 5 m/s 706 mmHg 78%
13:00 +8°C° 0.6 mm 4 m/s 706 mmHg 82%
14:00 +8°C° 0.6 mm 4 m/s 706 mmHg 85%
15:00 +7°C° 0.4 mm 4 m/s 706 mmHg 88%
16:00 +7°C° 0.4 mm 4 m/s 707 mmHg 91%
17:00 +7°C° 0.4 mm 3 m/s 707 mmHg 94%
18:00 +7°C° 0.4 mm 3 m/s 707 mmHg 94%
19:00 +7°C° 0.4 mm 3 m/s 708 mmHg 94%
20:00 +7°C° 0.4 mm 3 m/s 708 mmHg 94%
21:00 +5°C° 0.1 mm 3 m/s 708 mmHg 95%
22:00 +5°C° 0.1 mm 2 m/s 708 mmHg 96%
23:00 +5°C° 0.1 mm 2 m/s 708 mmHg 97%

26 Outubro, Segunda-feira

Tempo Temperatura Precipitação Vento Pressão Humidade
00:00 +5°C° 0.1 mm 2 m/s 709 mmHg 97%
01:00 +5°C° 0.1 mm 2 m/s 709 mmHg 97%
02:00 +5°C° 0.1 mm 2 m/s 709 mmHg 97%
03:00 +5°C° 0.1 mm 2 m/s 709 mmHg 97%
04:00 +5°C° 0.1 mm 2 m/s 710 mmHg 97%
05:00 +4°C° 0.1 mm 2 m/s 710 mmHg 97%
06:00 +5°C° 0 mm 2 m/s 710 mmHg 96%
07:00 +6°C° 0 mm 2 m/s 711 mmHg 95%
08:00 +7°C° 0 mm 2 m/s 711 mmHg 94%
09:00 +7°C° 0.1 mm 2 m/s 711 mmHg 92%
10:00 +8°C° 0.1 mm 2 m/s 711 mmHg 89%
11:00 +9°C° 0.1 mm 2 m/s 711 mmHg 87%
12:00 +9°C° 0.1 mm 2 m/s 711 mmHg 87%
13:00 +9°C° 0.1 mm 2 m/s 711 mmHg 87%
14:00 +9°C° 0.1 mm 2 m/s 711 mmHg 86%
15:00 +9°C° 0 mm 2 m/s 711 mmHg 89%
16:00 +8°C° 0 mm 2 m/s 711 mmHg 91%
17:00 +8°C° 0 mm 2 m/s 711 mmHg 93%
18:00 +8°C° 0 mm 2 m/s 711 mmHg 93%
19:00 +7°C° 0 mm 2 m/s 711 mmHg 94%
20:00 +7°C° 0 mm 2 m/s 711 mmHg 94%
21:00 +7°C° 0 mm 2 m/s 711 mmHg 94%
22:00 +7°C° 0 mm 3 m/s 711 mmHg 93%
23:00 +7°C° 0 mm 3 m/s 710 mmHg 93%

27 Outubro, Terça-feira

Tempo Temperatura Precipitação Vento Pressão Humidade
00:00 +7°C° 0 mm 3 m/s 710 mmHg 93%
01:00 +7°C° 0 mm 3 m/s 709 mmHg 93%
02:00 +7°C° 0 mm 3 m/s 709 mmHg 93%
03:00 +7°C° 0 mm 3 m/s 709 mmHg 92%
04:00 +7°C° 0 mm 3 m/s 709 mmHg 91%
05:00 +7°C° 0 mm 3 m/s 709 mmHg 90%
06:00 +8°C° 0 mm 3 m/s 709 mmHg 87%
07:00 +8°C° 0 mm 4 m/s 708 mmHg 84%
08:00 +8°C° 0 mm 4 m/s 708 mmHg 81%
09:00 +10°C° 0 mm 4 m/s 708 mmHg 78%
10:00 +11°C° 0 mm 4 m/s 708 mmHg 75%
11:00 +12°C° 0 mm 4 m/s 708 mmHg 72%
12:00 +13°C° 0 mm 5 m/s 708 mmHg 72%
13:00 +13°C° 0 mm 5 m/s 708 mmHg 72%
14:00 +13°C° 0 mm 5 m/s 708 mmHg 71%
15:00 +12°C° 0 mm 4 m/s 707 mmHg 74%
16:00 +11°C° 0 mm 4 m/s 707 mmHg 77%
17:00 +11°C° 0 mm 4 m/s 707 mmHg 80%
18:00 +11°C° 0 mm 4 m/s 707 mmHg 80%
19:00 +11°C° 0 mm 4 m/s 707 mmHg 80%
20:00 +11°C° 0 mm 3 m/s 707 mmHg 80%
21:00 +11°C° 0 mm 3 m/s 707 mmHg 80%
22:00 +11°C° 0 mm 3 m/s 707 mmHg 81%
23:00 +11°C° 0 mm 3 m/s 707 mmHg 81%
Mostrar mais